Date String (YYYY-MM-DD hh:mm:ss) UTC,Instrument flags,absolute air pressure of the measurement (hPa),sample flow rate (lpm),inlet stack bypass flow (lpm),air temperature of the measurement (°C),ambient temperature measured by the external sensor (°C),aerosol sample conditioner tube jacket temperature (°C),OPC LED temperature (°C),internal box temperature (°C),relative humidity of the measurement (%),span deviation,mass concentration of particles derived from Lorenz-Mie calculation of OPC scattering (μg/m³),mass concentration of particles derived from Lorenz-Mie calculation of OPC scattering (μg/m³),mass concentration of particles derived from Lorenz-Mie calculation of OPC scattering (μg/m³)
DateTimeUTC,F1_M11,P_M11,Q1_M11,Q2_M11,T1_M11,T2_M11,T3_M11,T4_M11,T5_M11,U1_M11,ZSPAN_M11,X0_M11,X2_M11,X1_M11
2024-02-20 07:00:00,SystemResetWarning,0827.8,5.00,000.00,022.6,022.0,000.0,031.3,024.6,13.1,0000.0,0009.53,0003.34,0002.73
2024-02-20 07:01:00,SystemResetWarning,0827.8,4.99,000.00,022.7,022.0,000.0,031.2,024.6,13.1,0000.0,0009.97,0003.35,0002.74
2024-02-20 07:02:00,SystemResetWarning,0827.9,4.99,000.00,022.7,022.0,000.0,031.2,024.6,13.1,0000.0,0009.90,0003.35,0002.75
2024-02-20 07:03:00,SystemResetWarning,0827.9,5.00,000.00,022.7,022.0,000.0,031.2,024.6,13.1,0000.0,0009.21,0003.31,0002.74
2024-02-20 07:04:00,SystemResetWarning,0827.8,5.01,000.00,022.7,022.0,000.0,031.2,024.6,13.1,0000.0,0009.10,0003.30,0002.74
2024-02-20 07:05:00,SystemResetWarning,0827.8,5.00,000.00,022.7,022.0,000.0,031.2,024.6,13.1,0000.0,0009.44,0003.29,0002.73
2024-02-20 07:06:00,SystemResetWarning,0827.7,5.00,000.00,022.7,022.0,000.0,031.2,024.6,13.1,0000.0,0009.21,0003.28,0002.73
2024-02-20 07:07:00,SystemResetWarning,0827.8,4.99,000.00,022.7,022.0,000.0,031.2,024.6,13.1,0000.0,0009.23,0003.28,0002.73
2024-02-20 07:08:00,SystemResetWarning,0827.7,4.99,000.00,022.6,022.0,000.0,031.2,024.5,13.0,0000.0,0008.83,0003.26,0002.72
2024-02-20 07:09:00,SystemResetWarning,0827.6,5.00,000.00,022.6,022.0,000.0,031.2,024.5,13.1,0000.0,0008.70,0003.26,0002.72
2024-02-20 07:10:00,SystemResetWarning,0827.5,5.00,000.00,022.6,022.0,000.0,031.2,024.5,13.0,0000.0,0007.94,0003.28,0002.72
2024-02-20 07:11:00,SystemResetWarning,0827.5,5.00,000.00,022.6,022.0,000.0,031.2,024.5,13.0,0000.0,0008.36,0003.30,0002.72
2024-02-20 07:12:00,SystemResetWarning,0827.6,4.99,000.00,022.6,021.9,000.0,031.2,024.5,13.0,0000.0,0008.14,0003.27,0002.71
2024-02-20 07:13:00,SystemResetWarning,0827.7,5.01,000.00,022.6,021.9,000.0,031.2,024.5,13.0,0000.0,0008.03,0003.26,0002.69
2024-02-20 07:14:00,SystemResetWarning,0827.8,5.01,000.00,022.6,021.9,000.0,031.2,024.5,13.0,0000.0,0008.00,0003.26,0002.68
2024-02-20 07:15:00,SystemResetWarning,0827.9,5.00,000.00,022.6,021.9,000.0,031.2,024.5,13.1,0000.0,0007.88,0003.25,0002.68
2024-02-20 07:16:00,SystemResetWarning,0827.7,4.99,000.00,022.6,021.9,000.0,031.2,024.5,13.0,0000.0,0007.40,0003.21,0002.66
2024-02-20 07:17:00,SystemResetWarning,0827.7,4.99,000.00,022.6,021.9,000.0,031.2,024.4,12.8,0000.0,0007.40,0003.19,0002.64
2024-02-20 07:18:00,SystemResetWarning,0827.6,5.00,000.00,022.6,021.9,000.0,031.1,024.4,12.8,0000.0,0007.42,0003.19,0002.62
2024-02-20 07:19:00,SystemResetWarning,0827.7,5.00,000.00,022.6,021.9,000.0,031.1,024.4,12.6,0000.0,0007.39,0003.18,0002.60
2024-02-20 07:20:00,SystemResetWarning,0827.6,5.00,000.00,022.6,021.9,000.0,031.1,024.4,12.5,0000.0,0008.48,0003.16,0002.58
2024-02-20 07:21:00,SystemResetWarning,0827.7,5.01,000.00,022.6,021.9,000.0,031.1,024.4,12.6,0000.0,0008.60,0003.14,0002.58
2024-02-20 07:22:00,SystemResetWarning,0827.8,5.00,000.00,022.6,021.9,000.0,031.1,024.4,12.6,0000.0,0009.49,0003.14,0002.57
2024-02-20 07:23:00,SystemResetWarning,0828.0,5.00,000.00,022.6,021.9,000.0,031.1,024.4,12.7,0000.0,0009.67,0003.17,0002.57
2024-02-20 07:24:00,SystemResetWarning,0828.0,4.99,000.00,022.6,021.9,000.0,031.1,024.4,13.1,0000.0,0010.68,0003.18,0002.56
2024-02-20 07:25:00,SystemResetWarning,0827.8,5.00,000.00,022.6,021.9,000.0,031.1,024.4,13.0,0000.0,0010.87,0003.16,0002.54
2024-02-20 07:26:00,SystemResetWarning,0827.9,5.00,000.00,022.6,021.9,000.0,031.1,024.4,13.1,0000.0,0010.86,0003.15,0002.51
2024-02-20 07:27:00,SystemResetWarning,0828.0,5.00,000.00,022.5,021.9,000.0,031.1,024.4,13.1,0000.0,0010.86,0003.11,0002.46
2024-02-20 07:28:00,SystemResetWarning,0827.8,5.00,000.00,022.5,021.9,000.0,031.1,024.3,13.1,0000.0,0010.81,0003.09,0002.40
2024-02-20 07:29:00,SystemResetWarning,0827.7,5.00,000.00,022.5,021.8,000.0,031.1,024.3,13.1,0000.0,0010.84,0003.02,0002.36
2024-02-20 07:30:00,SystemResetWarning,0827.7,5.00,000.00,022.5,021.8,000.0,031.1,024.2,13.1,0000.0,0011.00,0002.99,0002.32
2024-02-20 07:31:00,SystemResetWarning,0827.7,5.00,000.00,022.5,021.8,000.0,031.1,024.2,13.2,0000.0,0010.34,0002.93,0002.26
2024-02-20 07:32:00,SystemResetWarning,0827.7,5.00,000.00,022.4,021.7,000.0,031.0,024.2,13.2,0000.0,0010.18,0002.87,0002.21
2024-02-20 07:33:00,SystemResetWarning,0827.7,5.00,000.00,022.4,021.7,000.0,031.0,024.2,13.1,0000.0,0009.21,0002.77,0002.16
2024-02-20 07:34:00,SystemResetWarning,0827.8,5.00,000.00,022.4,021.7,000.0,031.0,024.2,13.2,0000.0,0008.45,0002.63,0002.10
2024-02-20 07:35:00,SystemResetWarning,0827.8,5.01,000.00,022.4,021.7,000.0,031.0,024.2,13.3,0000.0,0007.66,0002.59,0002.07
2024-02-20 07:36:00,SystemResetWarning,0827.8,5.01,000.00,022.4,021.7,000.0,031.0,024.2,13.3,0000.0,0007.62,0002.62,0002.06
2024-02-20 07:37:00,SystemResetWarning,0827.7,5.00,000.00,022.4,021.7,000.0,031.0,024.2,13.2,0000.0,0007.71,0002.63,0002.05
2024-02-20 07:38:00,SystemResetWarning,0827.5,4.99,000.00,022.4,021.7,000.0,031.0,024.2,13.0,0000.0,0007.90,0002.64,0002.06
2024-02-20 07:39:00,SystemResetWarning,0827.5,4.99,000.00,022.4,021.7,000.0,031.0,024.2,12.6,0000.0,0007.90,0002.67,0002.10
2024-02-20 07:40:00,SystemResetWarning,0827.6,4.99,000.00,022.4,021.7,000.0,031.0,024.2,12.2,0000.0,0007.79,0002.71,0002.14
2024-02-20 07:41:00,SystemResetWarning,0827.6,5.00,000.00,022.4,021.7,000.0,031.0,024.2,12.3,0000.0,0007.53,0002.72,0002.17
2024-02-20 07:42:00,SystemResetWarning,0827.7,5.00,000.00,022.3,021.7,000.0,030.9,024.2,12.8,0000.0,0007.15,0002.79,0002.21
2024-02-20 07:43:00,SystemResetWarning,0827.7,5.00,000.00,022.3,021.7,000.0,030.9,024.2,12.8,0000.0,0006.74,0002.82,0002.24
2024-02-20 07:44:00,SystemResetWarning,0827.8,5.00,000.00,022.4,021.7,000.0,030.9,024.2,13.0,0000.0,0005.64,0002.83,0002.26
2024-02-20 07:45:00,SystemResetWarning,0827.8,5.01,000.00,022.3,021.7,000.0,030.9,024.2,13.4,0000.0,0006.29,0002.84,0002.27
2024-02-20 07:46:00,SystemResetWarning,0827.9,5.00,000.00,022.3,021.7,000.0,030.9,024.2,13.4,0000.0,0006.05,0002.83,0002.29
2024-02-20 07:47:00,SystemResetWarning,0827.9,4.99,000.00,022.3,021.7,000.0,030.9,024.1,13.5,0000.0,0005.67,0002.78,0002.29
2024-02-20 07:48:00,SystemResetWarning,0827.8,4.99,000.00,022.3,021.7,000.0,030.9,024.1,13.5,0000.0,0005.67,0002.72,0002.26
2024-02-20 07:49:00,SystemResetWarning,0827.8,5.00,000.00,022.3,021.6,000.0,030.9,024.1,13.5,0000.0,0005.81,0002.68,0002.21
2024-02-20 07:50:00,SystemResetWarning,0827.6,5.00,000.00,022.3,021.6,000.0,030.9,024.1,13.4,0000.0,0006.67,0002.65,0002.16
2024-02-20 07:51:00,SystemResetWarning,0827.6,5.01,000.00,022.3,021.6,000.0,030.9,024.2,12.4,0000.0,0006.70,0002.64,0002.13
2024-02-20 07:52:00,SystemResetWarning,0827.6,5.00,000.00,022.3,021.6,000.0,030.9,024.2,12.0,0000.0,0007.11,0002.63,0002.09
2024-02-20 07:53:00,SystemResetWarning,0827.6,5.00,000.00,022.3,021.6,000.0,030.9,024.2,11.8,0000.0,0007.39,0002.60,0002.07
2024-02-20 07:54:00,SystemResetWarning,0827.7,4.99,000.00,022.3,021.6,000.0,030.9,024.2,12.1,0000.0,0007.40,0002.60,0002.06
2024-02-20 07:55:00,SystemResetWarning,0827.7,4.99,000.00,022.3,021.6,000.0,030.9,024.2,12.5,0000.0,0007.70,0002.62,0002.06
2024-02-20 07:56:00,SystemResetWarning,0827.8,4.99,000.00,022.3,021.6,000.0,030.9,024.2,12.8,0000.0,0007.81,0002.66,0002.08
2024-02-20 07:57:00,SystemResetWarning,0828.0,5.00,000.00,022.3,021.6,000.0,030.9,024.2,13.3,0000.0,0007.79,0002.66,0002.06
2024-02-20 07:58:00,SystemResetWarning,0828.0,5.02,000.00,022.3,021.6,000.0,030.8,024.1,13.5,0000.0,0007.77,0002.66,0002.05
2024-02-20 07:59:00,SystemResetWarning,0827.8,5.00,000.00,022.3,021.6,000.0,030.8,024.1,13.7,0000.0,0008.03,0002.70,0002.08
